Location: Napoli
(40.8639°N, 14.2562°E)
Time: 13:11:06
(UTC+02:00)

ISS - Pass Details

Date: 09 October 2017
Orbit: 401 x 408 km, 51.6° (Epoch: 25 October)

Event Time Altitude Azimuth Distance (km) Brightness Sun altitude
Rises 20:22:18 0° 311° (NW) 2,329 1.0 -21.6°
Reaches altitude 10° 20:24:32 10° 322° (NW) 1,468 -0.4 -22.1°
Enters shadow 20:26:24 24° 350° (N) 888 -1.9 -22.4°
